DENVH EDHE-EDHE

Flight info

Callsign DENVH
Flight time 0h 16m
Altitude 2500
Route VFR
Aircraft C182/L-S/L

Departure

Time 2026-04-25 20:06
Airport Uetersen-Heist Airfield (EDHE)

Arrival

Time 2026-04-25 20:23
Airport Uetersen-Heist Airfield (EDHE)
Time Latitude Longitude Altitude Speed Heading
2026-04-25 20:04 53.64557 9.71045 29 ft 0 kts 51°
2026-04-25 20:05 53.64558 9.71047 29 ft 1 kts 43°
2026-04-25 20:05 53.64574 9.71055 28 ft 3 kts
2026-04-25 20:05 53.64606 9.71060 28 ft 4 kts
2026-04-25 20:05 53.64625 9.71040 28 ft 5 kts 287°
2026-04-25 20:06 53.64645 9.70756 30 ft 50 kts 276°
2026-04-25 20:06 53.64698 9.70045 236 ft 65 kts 280°
2026-04-25 20:06 53.64702 9.69266 475 ft 71 kts 272°
2026-04-25 20:06 53.64694 9.68369 647 ft 78 kts 272°
2026-04-25 20:07 53.64591 9.67436 800 ft 88 kts 252°
2026-04-25 20:07 53.64058 9.66770 843 ft 109 kts 207°
2026-04-25 20:07 53.63282 9.66469 852 ft 116 kts 202°
2026-04-25 20:07 53.62492 9.66241 948 ft 116 kts 197°
2026-04-25 20:08 53.61692 9.66069 1068 ft 113 kts 196°
2026-04-25 20:08 53.60893 9.65921 1118 ft 121 kts 197°
2026-04-25 20:08 53.60073 9.65617 1118 ft 122 kts 204°
2026-04-25 20:08 53.59234 9.65227 1083 ft 125 kts 205°
2026-04-25 20:09 53.58390 9.64892 1086 ft 125 kts 198°
2026-04-25 20:09 53.57595 9.64461 1089 ft 115 kts 220°
2026-04-25 20:09 53.57228 9.63470 1061 ft 93 kts 275°
2026-04-25 20:09 53.57519 9.62673 1055 ft 82 kts 329°
2026-04-25 20:10 53.58093 9.62753 1041 ft 92 kts 18°
2026-04-25 20:10 53.58466 9.63695 1041 ft 108 kts 70°
2026-04-25 20:10 53.58216 9.64896 1059 ft 117 kts 136°
2026-04-25 20:10 53.57648 9.65931 1042 ft 125 kts 130°
2026-04-25 20:11 53.57189 9.67159 1097 ft 122 kts 115°
2026-04-25 20:11 53.56816 9.68416 1202 ft 119 kts 111°
2026-04-25 20:11 53.56456 9.69718 1222 ft 126 kts 107°
2026-04-25 20:11 53.56105 9.71099 1302 ft 129 kts 109°
2026-04-25 20:12 53.55829 9.72543 1327 ft 133 kts 97°
2026-04-25 20:12 53.55634 9.74119 1342 ft 140 kts 96°
2026-04-25 20:12 53.55427 9.75721 1335 ft 143 kts 95°
2026-04-25 20:12 53.55356 9.76275 1335 ft 143 kts 95°
2026-04-25 20:13 53.55007 9.78991 1337 ft 142 kts 95°
2026-04-25 20:13 53.54798 9.80618 1335 ft 142 kts 95°
2026-04-25 20:13 53.54588 9.82246 1334 ft 142 kts 95°
2026-04-25 20:13 53.54379 9.83874 1333 ft 141 kts 95°
2026-04-25 20:14 53.54260 9.85501 1333 ft 140 kts 89°
2026-04-25 20:14 53.54169 9.87134 1331 ft 139 kts 88°
2026-04-25 20:14 53.54076 9.88726 1330 ft 135 kts 88°
2026-04-25 20:14 53.53983 9.90290 1331 ft 133 kts 88°
2026-04-25 20:15 53.53884 9.91834 1331 ft 133 kts 88°
2026-04-25 20:15 53.53829 9.93363 1333 ft 130 kts 82°
2026-04-25 20:15 53.53852 9.94859 1337 ft 125 kts 73°
2026-04-25 20:15 53.53975 9.96295 1310 ft 124 kts 71°
2026-04-25 20:16 53.54008 9.97738 1299 ft 123 kts 85°
2026-04-25 20:16 53.53882 9.99140 1261 ft 117 kts 88°
2026-04-25 20:16 53.54160 10.00184 1248 ft 88 kts 17°
2026-04-25 20:16 53.54686 10.00115 1237 ft 76 kts 323°
2026-04-25 20:17 53.54867 9.99303 1275 ft 85 kts 273°
2026-04-25 20:17 53.54409 9.98568 1329 ft 107 kts 206°
2026-04-25 20:17 53.53698 9.99060 1293 ft 123 kts 125°
2026-04-25 20:17 53.53564 10.00367 1252 ft 114 kts 66°
2026-04-25 20:18 53.54012 10.01255 1223 ft 91 kts
2026-04-25 20:18 53.54535 10.00931 1174 ft 85 kts 311°
2026-04-25 20:18 53.54652 9.99959 1174 ft 88 kts 281°
2026-04-25 20:18 53.54721 9.98940 1161 ft 88 kts 286°
2026-04-25 20:19 53.54392 9.98037 1192 ft 110 kts 216°
2026-04-25 20:19 53.53616 9.98270 1268 ft 120 kts 145°
2026-04-25 20:19 53.53275 9.99485 1227 ft 118 kts 83°
2026-04-25 20:19 53.53495 10.00754 1177 ft 113 kts 44°
2026-04-25 20:20 53.54110 10.01465 1169 ft 106 kts
2026-04-25 20:20 53.54825 10.01669 1167 ft 106 kts 358°
2026-04-25 20:20 53.55570 10.01787 1157 ft 108 kts 356°
2026-04-25 20:20 53.56329 10.01870 1091 ft 112 kts 356°
2026-04-25 20:21 53.57114 10.01939 1004 ft 114 kts 355°
2026-04-25 20:21 53.57895 10.01946 990 ft 111 kts 352°
2026-04-25 20:21 53.58665 10.01900 909 ft 113 kts 351°
2026-04-25 20:21 53.59455 10.01832 776 ft 112 kts 349°
2026-04-25 20:22 53.60215 10.01682 648 ft 108 kts 345°
2026-04-25 20:22 53.60463 10.01603 593 ft 108 kts 343°
2026-04-25 20:22 53.61569 10.00884 362 ft 88 kts 328°
2026-04-25 20:22 53.62046 10.00460 256 ft 69 kts 331°
2026-04-25 20:23 53.62430 10.00121 156 ft 54 kts 329°
2026-04-25 20:23 53.62771 9.99828 58 ft 56 kts 333°
2026-04-25 20:23 53.63062 9.99578 41 ft 33 kts 332°
2026-04-25 20:23 53.63112 9.99433 41 ft 11 kts 236°
2026-04-25 20:24 53.63050 9.99304 42 ft 15 kts 206°
2026-04-25 20:24 53.62957 9.99355 42 ft 16 kts 152°
2026-04-25 20:24 53.62853 9.99445 42 ft 19 kts 153°
2026-04-25 20:24 53.62736 9.99548 42 ft 19 kts 152°
2026-04-25 20:25 53.62636 9.99601 42 ft 13 kts 208°
2026-04-25 20:25 53.62605 9.99462 42 ft 15 kts 258°
2026-04-25 20:25 53.62565 9.99338 42 ft 10 kts 167°
2026-04-25 20:25 53.62546 9.99436 42 ft 12 kts 77°